Regional Weather Roundup
Issued by NWS

Home | Current Version | Previous Version | Graphics & Text | Print | Product List | Glossary On
Versions: 1 2 3 4 5 6 7 8 9 10 11 12 13 14 15 16 17 18 19 20 21 22 23 24 25 26 27 28 29 30 31 32 33 34 35 36 37 38 39 40 41 42 43 44 45 46 47 48 49 50
000
ASUS43 KFSD 271802
RWRSD

WEATHER ROUNDUP FOR SOUTH DAKOTA
NATIONAL WEATHER SERVICE SIOUX FALLS SD
100 PM CDT MON MAR 27 2017

NOTE: "FAIR" INDICATES FEW OR NO CLOUDS BELOW 12,000 FEET WITH NO
SIGNIFICANT WEATHER AND/OR OBSTRUCTIONS TO VISIBILITY.


SDZ001>005-009-010-012>017-271900-
NORTHWEST AND NORTH CENTRAL SOUTH DAKOTA

CITY           SKY/WX    TMP DP  RH WIND       PRES   REMARKS
BUFFALO          N/A     58  33  39 S15G23    29.82S
FAITH            N/A     52  41  66 MISG      29.91F
MOBRIDGE       SUNNY     57  34  41 VRB5      29.91S
$$

SDZ012>016-024>037-041>051-057-063-072>074-271900-
SOUTHWEST AND SOUTH CENTRAL SOUTH DAKOTA

CITY           SKY/WX    TMP DP  RH WIND       PRES   REMARKS
RAPID CTY ARPT CLOUDY    45  41  86 SE9       29.89F
PIERRE         CLOUDY    55  38  52 SE9       29.92F
CUSTER         PTSUNNY   46  34  62 SE6       29.87S
PHILIP         SUNNY     57  39  51 S6        29.89F
PINE RIDGE     SUNNY     61  37  41 MISG      29.86F
SPEARFISH      FAIR      54  37  54 E13G20    29.86F
WINNER         FAIR      57  40  52 VRB5      29.93F
$$

SDZ004>011-016>023-039-040-271900-
NORTHEAST SOUTH DAKOTA

CITY           SKY/WX    TMP DP  RH WIND       PRES   REMARKS
ABERDEEN       SUNNY     56  36  47 VRB6      29.96F
WATERTOWN      SUNNY     50  33  52 CALM      29.96S
BROOKINGS      MOSUNNY   52  36  54 VRB7      29.96F
SISSETON         N/A     51  41  68 CALM      29.97S
$$

SDZ017-020-022-023-036>040-048>070-271900-
SOUTHEAST SOUTH DAKOTA

CITY           SKY/WX    TMP DP  RH WIND       PRES   REMARKS
SIOUX FALLS    MOSUNNY   55  37  50 N7        29.97F
HURON          MOSUNNY   54  38  54 VRB5      29.96F
CHAMBERLAIN    MOSUNNY   56  40  55 NE5       29.95S
MITCHELL       SUNNY     53  38  56 CALM      29.97F
YANKTON        SUNNY     52  37  58 E5        29.98F
$$

ABBREVIATIONS USED IN REMARKS
   TC - TEMPERATURE IN CELSIUS
  WCI - WIND CHILL INDEX
   HX - HEAT INDEX
  VSB - VISIBILITY





USA.gov is the U.S. government's official web portal to all federal, state and local government web resources and services.